Back to catalog

STARLINK-36129

AliveCommunicationsVLEO
NORAD 66874·PAYLOAD·🇺🇸 United States

Launched Dec 2, 2025 from Cape Canaveral Space Force Station

Loading…

Next Passes (next 24 hours)

TLE

FreshSource: CelesTrak SupGP

Epoch: Sep 14, 2026, 23:04 UTC

1 66874C 25281AC  26257.96159722 -.00021950  00000+0 -79490-3 0  2579
2 66874  43.0030 354.5763 0001527 271.1971  31.1681 15.27594061    10

Track STARLINK-36129 in real time with AllMySat

Download on the App Store